| time (UTC) | temp F | wind direction | speed knots | gust knots | rain 1hr in | rain 24hr in | rain mn in | humidity % | barometer mb |
| 20260504050535 | 55 | 229 | 3.5 | 7.8 | 0.00 | 0.00 | 0.00 | 54 | 1009.0 |
| 20260504045534 | 55 | 221 | 2.6 | 7.0 | 0.00 | 0.00 | 0.00 | 55 | 1009.0 |
| 20260504045034 | 55 | 245 | 2.6 | 6.1 | 0.00 | 0.00 | 0.00 | 55 | 1009.0 |
| 20260504044544 | 54 | 209 | 1.7 | 5.2 | 0.00 | 0.00 | 0.00 | 56 | 1009.1 |
| 20260504044034 | 54 | 209 | 1.7 | 5.2 | 0.00 | 0.00 | 0.00 | 57 | 1009.1 |
| 20260504043534 | 54 | 217 | 1.7 | 5.2 | 0.00 | 0.00 | 0.00 | 58 | 1009.0 |
| 20260504043105 | 54 | 238 | 1.7 | 3.5 | 0.00 | 0.00 | 0.00 | 58 | 1009.1 |
| 20260504042534 | 54 | 221 | 0.0 | 2.6 | 0.00 | 0.00 | 0.00 | 60 | 1009.1 |
| 20260504042034 | 53 | 221 | 0.0 | 4.3 | 0.00 | 0.00 | 0.00 | 60 | 1009.2 |
| 20260504041545 | 53 | 0 | 0.9 | 4.3 | 0.00 | 0.00 | 0.00 | 61 | 1009.1 |
| 20260504041034 | 53 | 205 | 1.7 | 3.5 | 0.00 | 0.00 | 0.00 | 62 | 1009.1 |
| 20260504040539 | 52 | 236 | 0.9 | 7.0 | 0.00 | 0.00 | 0.00 | 63 | 1009.1 |
| 20260504040048 | 51 | 248 | 0.9 | 7.0 | 0.00 | 0.00 | 0.00 | 67 | 1009.1 |
| 20260504035535 | 50 | 216 | 0.9 | 7.0 | 0.00 | 0.00 | 0.00 | 72 | 1009.1 |
| 20260504035035 | 49 | 0 | 0.0 | 0.0 | 0.00 | 0.00 | 0.00 | 78 | 1009.0 |
| 20260504034546 | 49 | 0 | 0.0 | 0.0 | 0.00 | 0.00 | 0.00 | 81 | 1009.1 |
| 20260504034034 | 49 | 0 | 0.0 | 0.0 | 0.00 | 0.00 | 0.00 | 84 | 1009.0 |
| 20260504033534 | 49 | 0 | 0.0 | 0.0 | 0.00 | 0.00 | 0.00 | 86 | 1009.0 |
| 20260504033045 | 49 | 0 | 0.0 | 0.0 | 0.00 | 0.00 | 0.00 | 86 | 1009.1 |
| 20260504032534 | 49 | 0 | 0.0 | 0.0 | 0.00 | 0.00 | 0.00 | 86 | 1009.1 |
| 20260504032034 | 49 | 0 | 0.0 | 0.0 | 0.00 | 0.00 | 0.00 | 85 | 1009.2 |
| 20260504031551 | 49 | 0 | 0.0 | 0.0 | 0.00 | 0.00 | 0.00 | 84 | 1009.3 |
| 20260504031034 | 49 | 0 | 0.0 | 0.0 | 0.00 | 0.00 | 0.00 | 83 | 1009.2 |
| 20260504030534 | 49 | 0 | 0.0 | 0.0 | 0.00 | 0.00 | 0.00 | 83 | 1009.3 |
| 20260504030100 | 49 | 0 | 0.0 | 0.0 | 0.00 | 0.00 | 0.00 | 83 | 1009.3 |
| 20260504025534 | 49 | 0 | 0.0 | 0.9 | 0.00 | 0.00 | 0.00 | 84 | 1009.4 |
| 20260504025034 | 49 | 0 | 0.0 | 0.9 | 0.00 | 0.00 | 0.00 | 84 | 1009.5 |
| 20260504024545 | 49 | 0 | 0.0 | 0.9 | 0.00 | 0.00 | 0.00 | 83 | 1009.6 |
| 20260504024034 | 49 | 0 | 0.0 | 0.9 | 0.00 | 0.00 | 0.00 | 82 | 1009.6 |
| 20260504023534 | 49 | 0 | 0.0 | 0.9 | 0.00 | 0.00 | 0.00 | 81 | 1009.6 |
| 20260504023049 | 50 | 0 | 0.0 | 0.0 | 0.00 | 0.00 | 0.00 | 82 | 1009.9 |
| 20260504022538 | 50 | 0 | 0.0 | 0.9 | 0.00 | 0.00 | 0.00 | 82 | 1009.7 |
| 20260504022035 | 50 | 0 | 0.0 | 0.9 | 0.00 | 0.00 | 0.00 | 81 | 1009.6 |
| 20260504021548 | 50 | 0 | 0.0 | 0.9 | 0.00 | 0.00 | 0.00 | 80 | 1009.7 |
| 20260504021036 | 50 | 0 | 0.0 | 0.9 | 0.00 | 0.00 | 0.00 | 81 | 1009.6 |
| 20260504020538 | 50 | 0 | 0.0 | 0.9 | 0.00 | 0.00 | 0.00 | 79 | 1009.7 |
| 20260504020053 | 50 | 0 | 0.0 | 0.9 | 0.00 | 0.00 | 0.00 | 78 | 1009.7 |
| 20260504015534 | 50 | 0 | 0.0 | 0.9 | 0.00 | 0.00 | 0.00 | 78 | 1009.8 |
| 20260504015034 | 50 | 0 | 0.0 | 1.7 | 0.00 | 0.00 | 0.00 | 78 | 1010.0 |
| 20260504014549 | 50 | 0 | 0.0 | 1.7 | 0.00 | 0.00 | 0.00 | 78 | 1010.0 |
| 20260504014034 | 50 | 254 | 0.0 | 1.7 | 0.00 | 0.00 | 0.00 | 79 | 1010.1 |
| 20260504013535 | 50 | 0 | 0.0 | 1.7 | 0.00 | 0.00 | 0.00 | 79 | 1010.2 |
| 20260504013051 | 50 | 0 | 0.0 | 1.7 | 0.00 | 0.00 | 0.00 | 79 | 1010.2 |
| 20260504012534 | 50 | 0 | 0.0 | 1.7 | 0.00 | 0.00 | 0.00 | 78 | 1010.1 |
| 20260504012035 | 50 | 0 | 0.0 | 3.5 | 0.00 | 0.00 | 0.00 | 78 | 1010.2 |
| 20260504011549 | 50 | 0 | 0.0 | 3.5 | 0.00 | 0.00 | 0.00 | 78 | 1010.1 |
| 20260504011037 | 50 | 279 | 0.0 | 3.5 | 0.00 | 0.00 | 0.00 | 77 | 1010.0 |
| 20260504010550 | 51 | 295 | 0.9 | 7.0 | 0.00 | 0.00 | 0.00 | 75 | 1010.2 |
| 20260504010055 | 51 | 252 | 0.9 | 7.0 | 0.00 | 0.00 | 0.00 | 73 | 1010.5 |
| 20260504005534 | 52 | 166 | 1.7 | 7.8 | 0.00 | 0.00 | 0.00 | 71 | 1010.5 |
| 20260504005034 | 52 | 326 | 0.9 | 7.8 | 0.00 | 0.00 | 0.00 | 69 | 1010.4 |
| 20260504004548 | 52 | 271 | 1.7 | 7.0 | 0.00 | 0.00 | 0.00 | 67 | 1010.6 |
| 20260504004035 | 52 | 295 | 1.7 | 9.6 | 0.00 | 0.00 | 0.00 | 66 | 1010.4 |
| 20260504003534 | 53 | 314 | 2.6 | 9.6 | 0.00 | 0.00 | 0.00 | 65 | 1010.2 |
| 20260504003044 | 53 | 295 | 3.5 | 9.6 | 0.00 | 0.00 | 0.00 | 64 | 1010.1 |
| 20260504002534 | 53 | 245 | 3.5 | 9.6 | 0.00 | 0.00 | 0.00 | 62 | 1010.1 |
| 20260504002034 | 53 | 300 | 2.6 | 7.8 | 0.00 | 0.00 | 0.00 | 62 | 1009.9 |
| 20260504001556 | 53 | 317 | 2.6 | 13.9 | 0.00 | 0.00 | 0.00 | 61 | 1009.9 |
| 20260504001034 | 54 | 287 | 4.3 | 17.4 | 0.00 | 0.00 | 0.00 | 60 | 1009.9 |
| 20260504000534 | 54 | 296 | 6.1 | 17.4 | 0.00 | 0.00 | 0.00 | 59 | 1009.9 |
| 20260504000040 | 54 | 258 | 6.1 | 13.9 | 0.00 | 0.00 | 0.00 | 60 | 1009.9 |
| 20260503235533 | 55 | 255 | 5.2 | 12.2 | 0.00 | 0.00 | 0.00 | 58 | 1009.6 |
| 20260503235035 | 55 | 242 | 3.5 | 7.8 | 0.00 | 0.00 | 0.00 | 52 | 1009.6 |
| 20260503234550 | 54 | 260 | 2.6 | 7.8 | 0.00 | 0.00 | 0.00 | 53 | 1009.5 |
| 20260503234038 | 53 | 311 | 2.6 | 7.8 | 0.00 | 0.00 | 0.00 | 56 | 1009.2 |
| 20260503233535 | 52 | 316 | 0.9 | 6.1 | 0.00 | 0.00 | 0.00 | 58 | 1009.2 |
| 20260503233044 | 52 | 246 | 0.0 | 2.6 | 0.00 | 0.00 | 0.00 | 58 | 1009.1 |
| 20260503232537 | 52 | 0 | 0.0 | 1.7 | 0.00 | 0.00 | 0.00 | 57 | 1009.2 |
| 20260503232034 | 52 | 0 | 0.0 | 0.0 | 0.00 | 0.00 | 0.00 | 59 | 1009.1 |
| 20260503231552 | 52 | 0 | 0.0 | 0.0 | 0.00 | 0.00 | 0.00 | 57 | 1009.1 |
| 20260503231038 | 52 | 0 | 0.0 | 0.9 | 0.00 | 0.00 | 0.00 | 57 | 1009.2 |
| 20260503230536 | 52 | 0 | 0.0 | 3.5 | 0.00 | 0.00 | 0.00 | 56 | 1009.1 |
| 20260503230100 | 53 | 0 | 0.0 | 3.5 | 0.00 | 0.00 | 0.00 | 57 | 1009.1 |
| 20260503225534 | 53 | 202 | 0.0 | 1.7 | 0.00 | 0.00 | 0.00 | 55 | 1009.1 |
| 20260503225034 | 53 | 0 | 0.0 | 1.7 | 0.00 | 0.00 | 0.00 | 54 | 1009.2 |
| 20260503224542 | 53 | 0 | 0.0 | 1.7 | 0.00 | 0.00 | 0.00 | 54 | 1009.3 |
| 20260503224036 | 53 | 0 | 0.0 | 2.6 | 0.00 | 0.00 | 0.00 | 53 | 1009.5 |
| 20260503223534 | 53 | 0 | 0.0 | 2.6 | 0.00 | 0.00 | 0.00 | 53 | 1009.5 |
| 20260503223107 | 53 | 311 | 0.0 | 7.0 | 0.00 | 0.00 | 0.00 | 52 | 1009.7 |
| 20260503222533 | 54 | 309 | 0.0 | 7.0 | 0.00 | 0.00 | 0.00 | 50 | 1009.7 |
| 20260503222034 | 54 | 290 | 1.7 | 7.0 | 0.00 | 0.00 | 0.00 | 52 | 1009.6 |
| 20260503221552 | 54 | 329 | 0.9 | 6.1 | 0.00 | 0.00 | 0.00 | 49 | 1009.9 |
| 20260503221035 | 55 | 302 | 0.9 | 6.1 | 0.00 | 0.00 | 0.00 | 50 | 1010.0 |
| 20260503220535 | 56 | 295 | 2.6 | 6.1 | 0.00 | 0.00 | 0.00 | 46 | 1009.8 |
| 20260503220052 | 57 | 286 | 0.9 | 6.1 | 0.00 | 0.00 | 0.00 | 45 | 1009.6 |
| 20260503215534 | 57 | 0 | 0.9 | 6.1 | 0.00 | 0.00 | 0.00 | 44 | 1009.5 |
| 20260503215035 | 57 | 250 | 2.6 | 6.1 | 0.00 | 0.00 | 0.00 | 42 | 1009.5 |
| 20260503214554 | 57 | 289 | 0.9 | 7.8 | 0.00 | 0.00 | 0.00 | 45 | 1009.4 |
| 20260503214034 | 57 | 232 | 1.7 | 7.8 | 0.00 | 0.00 | 0.00 | 41 | 1009.5 |
| 20260503213534 | 57 | 280 | 3.5 | 9.6 | 0.00 | 0.00 | 0.00 | 40 | 1009.3 |
| 20260503213046 | 58 | 229 | 1.7 | 9.6 | 0.00 | 0.00 | 0.00 | 41 | 1009.2 |
| 20260503212535 | 58 | 0 | 2.6 | 7.0 | 0.00 | 0.00 | 0.00 | 42 | 1009.2 |
| 20260503212034 | 58 | 228 | 2.6 | 7.8 | 0.00 | 0.00 | 0.00 | 41 | 1009.3 |
| 20260503211543 | 58 | 326 | 1.7 | 7.8 | 0.00 | 0.00 | 0.00 | 42 | 1009.4 |
| 20260503211034 | 58 | 286 | 2.6 | 7.8 | 0.00 | 0.00 | 0.00 | 40 | 1009.4 |
| 20260503210535 | 57 | 244 | 1.7 | 7.0 | 0.00 | 0.00 | 0.00 | 42 | 1009.6 |
| 20260503210042 | 57 | 304 | 1.7 | 7.0 | 0.00 | 0.00 | 0.00 | 42 | 1009.5 |
| 20260503205534 | 57 | 218 | 1.7 | 7.0 | 0.00 | 0.00 | 0.00 | 39 | 1009.5 |
| 20260503205036 | 57 | 297 | 2.6 | 7.0 | 0.00 | 0.00 | 0.00 | 42 | 1009.5 |
| 20260503204547 | 57 | 210 | 1.7 | 8.7 | 0.00 | 0.00 | 0.00 | 42 | 1009.6 |
| 20260503204034 | 56 | 192 | 4.3 | 8.7 | 0.00 | 0.00 | 0.00 | 41 | 1009.6 |
| 20260503203534 | 56 | 347 | 2.6 | 7.8 | 0.00 | 0.00 | 0.00 | 42 | 1009.7 |
| 20260503203049 | 56 | 266 | 2.6 | 7.8 | 0.00 | 0.00 | 0.00 | 40 | 1009.8 |
| 20260503202535 | 56 | 311 | 2.6 | 7.0 | 0.00 | 0.00 | 0.00 | 42 | 1009.8 |
| 20260503202036 | 56 | 301 | 1.7 | 7.8 | 0.00 | 0.00 | 0.00 | 41 | 1010.0 |
| 20260503201541 | 56 | 339 | 2.6 | 11.3 | 0.00 | 0.00 | 0.00 | 42 | 1010.1 |
| 20260503201036 | 56 | 217 | 4.3 | 11.3 | 0.00 | 0.00 | 0.00 | 40 | 1010.0 |
| 20260503200534 | 56 | 288 | 2.6 | 7.8 | 0.00 | 0.00 | 0.00 | 40 | 1010.1 |
| 20260503200047 | 56 | 251 | 2.6 | 7.8 | 0.00 | 0.00 | 0.00 | 39 | 1010.2 |
| 20260503195535 | 56 | 292 | 3.5 | 9.6 | 0.00 | 0.00 | 0.00 | 40 | 1010.2 |
| 20260503195034 | 57 | 247 | 3.5 | 9.6 | 0.00 | 0.00 | 0.00 | 41 | 1010.3 |
| 20260503194557 | 56 | 247 | 3.5 | 9.6 | 0.00 | 0.00 | 0.00 | 41 | 1010.5 |
| 20260503194034 | 55 | 270 | 1.7 | 6.1 | 0.00 | 0.00 | 0.00 | 48 | 1010.5 |
| 20260503193534 | 55 | 279 | 1.7 | 7.8 | 0.00 | 0.00 | 0.00 | 48 | 1010.6 |
| 20260503193044 | 55 | 234 | 1.7 | 7.8 | 0.00 | 0.00 | 0.00 | 49 | 1010.7 |
| 20260503192534 | 55 | 284 | 1.7 | 6.1 | 0.00 | 0.00 | 0.00 | 49 | 1010.9 |
| 20260503192034 | 55 | 147 | 2.6 | 7.0 | 0.00 | 0.00 | 0.00 | 47 | 1010.7 |
| 20260503191538 | 55 | 325 | 1.7 | 7.8 | 0.00 | 0.00 | 0.00 | 50 | 1011.0 |
| 20260503191035 | 55 | 194 | 3.5 | 7.8 | 0.00 | 0.00 | 0.00 | 48 | 1011.1 |
| 20260503190538 | 54 | 268 | 2.6 | 7.0 | 0.00 | 0.00 | 0.00 | 51 | 1011.1 |
| 20260503190047 | 53 | 271 | 2.6 | 6.1 | 0.00 | 0.00 | 0.00 | 51 | 1011.1 |
| 20260503185534 | 53 | 317 | 0.9 | 2.6 | 0.00 | 0.00 | 0.00 | 50 | 1011.1 |
| 20260503185034 | 53 | 0 | 0.9 | 6.1 | 0.00 | 0.00 | 0.00 | 50 | 1011.2 |
| 20260503184544 | 52 | 334 | 0.9 | 6.1 | 0.00 | 0.00 | 0.00 | 50 | 1011.2 |
| 20260503184035 | 52 | 315 | 1.7 | 6.1 | 0.00 | 0.00 | 0.00 | 50 | 1011.3 |
| 20260503183535 | 53 | 0 | 1.7 | 6.1 | 0.00 | 0.00 | 0.00 | 48 | 1011.3 |
| 20260503183053 | 53 | 316 | 1.7 | 6.1 | 0.00 | 0.00 | 0.00 | 47 | 1011.3 |
| 20260503182534 | 54 | 286 | 0.9 | 3.5 | 0.00 | 0.00 | 0.00 | 47 | 1011.4 |
| 20260503182034 | 54 | 292 | 1.7 | 4.3 | 0.00 | 0.00 | 0.00 | 46 | 1011.4 |
| 20260503181602 | 55 | 243 | 1.7 | 4.3 | 0.00 | 0.00 | 0.00 | 44 | 1011.4 |
| 20260503181038 | 55 | 347 | 0.9 | 3.5 | 0.00 | 0.00 | 0.00 | 49 | 1011.5 |
| 20260503180536 | 53 | 271 | 0.9 | 7.8 | 0.00 | 0.00 | 0.00 | 51 | 1011.5 |
| 20260503180053 | 52 | 310 | 1.7 | 7.8 | 0.00 | 0.00 | 0.00 | 46 | 1011.5 |
| 20260503175533 | 52 | 290 | 1.7 | 7.0 | 0.00 | 0.00 | 0.00 | 45 | 1011.5 |
| 20260503175034 | 53 | 288 | 1.7 | 7.0 | 0.00 | 0.00 | 0.00 | 45 | 1011.4 |
| 20260503174553 | 53 | 297 | 2.6 | 7.0 | 0.00 | 0.00 | 0.00 | 46 | 1011.4 |
| 20260503174034 | 54 | 0 | 1.7 | 7.0 | 0.00 | 0.00 | 0.00 | 46 | 1011.6 |
| 20260503173535 | 54 | 277 | 1.7 | 13.0 | 0.00 | 0.00 | 0.00 | 48 | 1011.5 |
| 20260503173040 | 54 | 282 | 2.6 | 13.0 | 0.00 | 0.00 | 0.00 | 46 | 1011.5 |
| 20260503172536 | 54 | 266 | 3.5 | 8.7 | 0.00 | 0.00 | 0.00 | 43 | 1011.6 |
| 20260503172034 | 54 | 205 | 1.7 | 7.8 | 0.00 | 0.00 | 0.00 | 47 | 1011.6 |
| 20260503171544 | 53 | 0 | 1.7 | 7.8 | 0.00 | 0.00 | 0.00 | 45 | 1011.5 |
| 20260503171034 | 53 | 206 | 1.7 | 10.4 | 0.00 | 0.00 | 0.00 | 47 | 1011.6 |
| 20260503170534 | 53 | 331 | 3.5 | 10.4 | 0.00 | 0.00 | 0.00 | 45 | 1011.8 |
| 20260503150534 | 49 | 297 | 1.7 | 7.0 | 0.00 | 0.00 | 0.00 | 44 | 1013.5 |
| 20260503131034 | 44 | 247 | 0.9 | 7.0 | 0.00 | 0.00 | 0.00 | 54 | 1014.4 |
| 20260503130535 | 44 | 298 | 2.6 | 7.0 | 0.00 | 0.00 | 0.00 | 55 | 1014.3 |
| 20260503110535 | 35 | 303 | 0.0 | 0.9 | 0.00 | 0.00 | 0.00 | 91 | 1013.9 |
| 20260503081541 | 37 | 0 | 0.0 | 1.7 | 0.00 | 0.00 | 0.00 | 82 | 1013.9 |
| 20260503081037 | 38 | 0 | 0.0 | 1.7 | 0.00 | 0.00 | 0.00 | 82 | 1013.8 |
| 20260503080538 | 38 | 271 | 0.0 | 0.9 | 0.00 | 0.00 | 0.00 | 81 | 1013.8 |
| 20260503072535 | 39 | 0 | 0.0 | 1.7 | 0.00 | 0.00 | 0.00 | 79 | 1013.7 |
| 20260503072035 | 40 | 0 | 0.0 | 3.5 | 0.00 | 0.00 | 0.00 | 79 | 1013.6 |
| 20260503071547 | 40 | 0 | 0.0 | 3.5 | 0.00 | 0.00 | 0.00 | 79 | 1013.6 |
| 20260503071034 | 40 | 0 | 0.0 | 2.6 | 0.00 | 0.00 | 0.00 | 79 | 1013.7 |
| 20260503070537 | 40 | 287 | 0.0 | 2.6 | 0.00 | 0.00 | 0.00 | 79 | 1013.7 |
| 20260503055034 | 40 | 0 | 0.0 | 0.9 | 0.00 | 0.00 | 0.00 | 79 | 1013.9 |
| 20260503054540 | 40 | 0 | 0.0 | 0.9 | 0.00 | 0.00 | 0.00 | 78 | 1013.9 |